Regional Weather Roundup
Issued by NWS Jackson, KY

Home | Current Version | Previous Version | Graphics & Text | Print | Product List | Glossary On
Versions: 1 2 3 4 5 6 7 8 9 10 11 12 13 14 15 16 17 18 19 20 21 22 23 24 25 26
000
ASUS43 KJKL 271110
RWRJKL

EAST KENTUCKY HOURLY WEATHER ROUNDUP
NATIONAL WEATHER SERVICE JACKSON KY
700 AM EDT THU JUL 27 2017

NOTE: "FAIR" INDICATES FEW OR NO CLOUDS BELOW 12,000 FEET WITH
NO SIGNIFICANT WEATHER AND/OR OBSTRUCTIONS TO VISIBILITY.

* THESE REPORTS ARE NOT UNDER NWS QUALITY CONTROL AND MAY NOT
  REPORT WEATHER SUCH AS PRECIPITATION AND FOG.

KYZ079-080-083-085-087-088-110-112-115-119-120-271200
...EASTERN KENTUCKY...

CITY           SKY/WX    TMP DP  RH WIND       PRES   REMARKS
JACKSON        PTCLDY    73  69  87 CALM      30.02S
LONDON         MOCLDY    73  69  87 SW3       30.04R
SOMERSET*      CLOUDY    70  70 100 CALM      30.05R
MONTICELLO*    CLOUDY    71  70  96 NE10      30.05R
WILLIAMSBURG*  PTSUNNY   70  70 100 CALM      30.05R
MIDDLESBORO*   PTCLDY    70  70 100 CALM      30.07R
HARLAN APT*    CLOUDY    68  68 100 CALM      30.07F VSB 3/4
PIKE CO APT*     N/A     71  70  96 SE3       30.04S
BIG SANDY APT* CLOUDY    73  69  87 S3        30.02S
MOREHEAD APT*  CLOUDY    75  68  78 CALM      30.01S
ASHLAND*       CLOUDY    70  70 100 CALM      29.96S
$$

KYZ035-036-041-042-044-050-067-078-099-271200
...CENTRAL KENTUCKY...

CITY           SKY/WX    TMP DP  RH WIND       PRES   REMARKS
MT STERLING*   MOCLDY    73  70  88 SW5       30.01S
FLEMING/MASON* MOCLDY    73  69  90 S6        30.00R
DANVILLE*      CLOUDY    73  72  94 S6        30.02S
LEXINGTON      CLOUDY    77  71  82 SW7       30.00R
FRANKFORT      CLOUDY    77  71  82 SW6       29.97S
LOUISVILLE     CLOUDY    80  73  79 SW6       29.96S
LEBANON*         N/A     77  73  88 S3        30.01R
GLASGOW*       CLOUDY    74  74 100 CALM      30.01S FOG
BOWLING GREEN  CLOUDY    79  76  90 SW6       30.00R
$$

KYZ091>093-OHZ055-061-077-WVZ005-015-034-035-042-271200
...SOUTHERN OHIO/WEST VIRGINIA...

CITY           SKY/WX    TMP DP  RH WIND       PRES   REMARKS
COVINGTON      TSTM      73  72  96 VRB3      29.98R FOG
COLUMBUS       CLOUDY    71  64  78 CALM      29.98R
DAYTON         CLOUDY    69  66  90 CALM      29.98R
WILMINGTON     CLOUDY    69  66  90 S3        29.97R
HUNTINGTON     CLOUDY    69  67  93 E5        29.98S
CHARLESTON     MOCLDY    66  64  93 CALM      30.00S
PINEVILLE*     PTCLDY    64  63  96 MISG      30.13S FOG
BECKLEY        CLOUDY    65  63  93 CALM      30.11S
BLUEFIELD      PTCLDY    67  61  81 W3        30.14S
LOGAN CO APT*    N/A     70  63  78 CALM      30.04F
$$

VAZ002-007-008-TNZ017-027-036-066-071-271200
...SOUTHWEST VIRGINIA/EAST TENNESSEE...

CITY           SKY/WX    TMP DP  RH WIND       PRES   REMARKS
WISE*          MOCLDY    68  68 100 S5        30.14F
JONESVILLE*      N/A     70  68  94 CALM      30.09F
ABINGDON*      CLOUDY    70  68  95 CALM      30.12R
BRISTOL        MOCLDY    70  68  93 N3        30.09S
MORRISTOWN*    PTSUNNY   73  72  94 S3        30.07R
SEVIERVILLE*   MOSUNNY   72  68  88 E3        30.06R
KNOXVILLE      CLOUDY    76  72  87 W5        30.06R
LAFOLLETTE*    MOSUNNY   72  72 100 CALM      30.09S FOG
OAK RIDGE      MOCLDY    77  72  84 CALM      30.07S
CROSSVILLE     PTCLDY    71  69  93 CALM      30.11R
NASHVILLE      CLOUDY    78  72  81 CALM      30.03R
$$

...KEY TO REMARKS...
VSB - VISIBILITY IN MILES
WCI - WIND CHILL INDEX
HX  - HEAT INDEX

$$




USA.gov is the U.S. government's official web portal to all federal, state and local government web resources and services.